Flag for Germany Weather past 2 weeks in Darmstadt, Hesse, Germany

Now
25 °F

Passing clouds.


Feels Like: 18 °F
Forecast: 17 / 37 °F
Wind: 6 mph from North

Location: Frankfurt-M-Flughafen Airport

Current Time: Dec 28, 2014 at 9:22:02 PM

Latest Report: Dec 28, 2014 at 8:50 PM


Visibility: N/A

Pressure: 30.48 "Hg

Humidity: 86%

Dew point: 21 °F

Location of DarmstadtLocation

Historic Weather in Darmstadt — Graph

°F

Darmstadt temperature yesterday

Maximum temperature yesterday: 34 °F (at 12:50 AM)
Minimum temperature yesterday: 30 °F (at 6:20 PM)
Average temperature yesterday: 32 °F

Past Weeks' High & Low Weather Summary

 TemperatureHumidityPressure
High57 °F (Dec 18, 7:50 PM)100% (Dec 14, 1:50 AM)30.48 "Hg (Dec 14, 1:50 AM)
Low23 °F (Dec 28, 9:20 AM)50% (Dec 28, 12:50 PM)29.42 "Hg (Dec 27, 2:50 PM)
Average41 °F86%30.07 "Hg
* Reported Dec 13 8:20 PM — Dec 28 8:20 PM, Darmstadt, Weather by CustomWeather, © 2014

Note: Actual official high and low records may vary slightly from our data, if they occured in-between our weather recording intervals... More about our weather records

Advertising

Darmstadt weather history for previous 24 hours

 ConditionsComfort  
Time TempWeatherWind HumidityBarometerVisibility
8:20 PM
Dec 28
27 °FPassing clouds.7 mph74%30.48 "HgN/A
7:50 PM27 °FPassing clouds.9 mph74%30.45 "HgN/A
7:20 PM27 °FPassing clouds.7 mph69%30.42 "HgN/A
6:50 PM27 °FClear.9 mph69%30.42 "Hg10 mi
6:20 PM25 °FPassing clouds.7 mph69%30.39 "HgN/A
5:50 PM25 °FClear.8 mph69%30.36 "Hg10 mi
5:20 PM28 °FPassing clouds.8 mph55%30.36 "HgN/A
4:50 PM28 °FClear.12 mph55%30.33 "Hg10 mi
4:20 PM28 °FSunny.13 mph55%30.30 "Hg10 mi
3:50 PM28 °FSunny.15 mph55%30.27 "Hg10 mi
3:20 PM28 °FPassing clouds.13 mph51%30.27 "HgN/A
2:50 PM28 °FPassing clouds.13 mph51%30.24 "HgN/A
2:20 PM28 °FSunny.16 mph51%30.21 "Hg10 mi
1:50 PM27 °FPassing clouds.15 mph54%30.21 "HgN/A
1:20 PM27 °FSunny.16 mph50%30.21 "Hg10 mi
12:50 PM27 °FSunny.21 mph50%30.18 "Hg10 mi
12:20 PM25 °FSunny.20 mph54%30.15 "Hg10 mi
11:50 AM25 °FSunny.18 mph59%30.15 "Hg10 mi
11:20 AM25 °FCold.18 mph59%30.12 "HgN/A
10:50 AM23 °FPassing clouds.17 mph63%30.12 "HgN/A
10:20 AM23 °FSunny.21 mph68%30.09 "Hg10 mi
9:50 AM23 °FSunny.22 mph74%30.07 "Hg10 mi
9:20 AM23 °FScattered clouds.21 mph74%30.04 "HgN/A
8:50 AM25 °FScattered clouds.20 mph74%30.01 "HgN/A
8:20 AM25 °FPassing clouds.18 mph74%29.98 "HgN/A
7:50 AM25 °FPassing clouds.18 mph80%29.95 "HgN/A
7:20 AM27 °FPassing clouds.20 mph74%29.89 "HgN/A
6:50 AM27 °FPassing clouds.15 mph74%29.89 "HgN/A
6:20 AM27 °FPartly cloudy.16 mph80%29.86 "HgN/A
5:50 AM27 °FPartly cloudy.15 mph80%29.83 "HgN/A
5:20 AM27 °FPassing clouds.15 mph80%29.83 "HgN/A
4:20 AM27 °FLight snow. Passing clouds.16 mph86%29.77 "HgN/A
3:50 AM28 °FPassing clouds.17 mph80%29.74 "HgN/A
3:20 AM28 °FLight snow. Partly cloudy.16 mph80%29.71 "Hg4 mi
2:50 AM28 °FLight snow. Partly cloudy.17 mph80%29.71 "Hg4 mi
2:20 AM28 °FLight snow. Passing clouds.17 mph86%29.68 "Hg3 mi
1:50 AM28 °FLight snow. Partly cloudy.17 mph86%29.65 "Hg3 mi
1:20 AM28 °FLight snow. Partly cloudy.16 mph93%29.65 "Hg3 mi
12:50 AM28 °FLight snow. Passing clouds.18 mph93%29.62 "Hg3 mi
12:20 AM28 °FLight snow. Passing clouds.18 mph93%29.62 "Hg3 mi
11:50 PM
Dec 27
30 °FLight snow. Passing clouds.14 mph93%29.59 "HgN/A
11:20 PM30 °FLight snow. Passing clouds.20 mph93%29.59 "HgN/A
10:50 PM30 °FLight snow. Partly cloudy.20 mph93%29.56 "HgN/A
10:20 PM30 °FLight snow. Partly cloudy.16 mph93%29.56 "Hg4 mi
9:50 PM30 °FLight snow. Mostly cloudy.14 mph93%29.53 "Hg4 mi
9:20 PM30 °FLight snow. Mostly cloudy.17 mph93%29.50 "Hg4 mi
Weather by CustomWeather, © 2014

See weather overviewHow to use our weather pages